Location: Rottenacker
(48.2350°N, 9.6886°E)
Time: 07:06:28
(UTC+01:00)

ISS - Visible Passes

Search period start: 18 January 2018 00:00
Search period end: 28 January 2018 00:00
Orbit: 402 x 407 km, 51.6° (Epoch: 18 January)

Date Brightness Start Highest point End Pass type
(mag) Time Alt. Az. Time Alt. Az. Time Alt. Az.
25 Jan -1.0 19:45:43 10° SW 19:46:12 13° SW 19:46:12 13° SW visible
26 Jan -2.3 18:53:52 10° SSW 18:56:18 24° SSE 18:56:18 24° SSE visible
27 Jan -1.7 18:02:30 10° S 18:04:25 15° SE 18:06:18 10° E visible
27 Jan -2.0 19:37:11 10° WSW 19:38:58 30° SW 19:38:58 30° SW visible
